Weather History for Wahpeton, ND

Change the Weather History Date:

Saturday, March 31, 2012

  Actual Average (KFFM) Record (KFFM)
Temperature  
Mean Temperature 55 °F -  
Max Temperature 66 °F 44 °F 78 °F (1963)
Min Temperature 44 °F 25 °F -3 °F (1969)
Degree Days  
Heating Degree Days 10    
Growing Degree Days 5 (Base 50)    
Moisture  
Dew Point 46 °F    
Average Humidity 77    
Maximum Humidity 93    
Minimum Humidity 49    
Precipitation  
Precipitation 0.00 in - - ()
Sea Level Pressure  
Sea Level Pressure 29.68 in    
Wind  
Wind Speed 12 mph (SE)    
Max Wind Speed 17 mph    
Max Gust Speed 24 mph    
Visibility 6 miles    
Events      
Averages and records for this station are not official NWS values.
T = Trace of Precipitation, MM = Missing Value Source: NWS Daily Summary

Daily Weather History Graph

Daily Weather History Graph

Search for Another Location

Airport:

Trip Planner

Search our weather history database for the weather conditions in past years. The results will help you decide how hot, cold, wet, or windy it might be!

Date:

Astronomy

Mar. 31, 2012 Rise Set
Actual Time 7:07 AM CDT 7:54 PM CDT
Civil Twilight 6:36 AM CDT 8:24 PM CDT
Nautical Twilight 6:00 AM CDT 9:01 PM CDT
Astronomical Twilight 5:22 AM CDT 9:39 PM CDT
Moon 1:02 PM CDT (3/31) 3:26 AM CDT (3/31)
Length of Visible Light 13h 48m
Length of Day
12h 47m
First Quarter, 59% of the Moon is Illuminated
Mar 31
First Quarter
Apr 6
Full
Apr 13
Last Quarter
Apr 21
New
Apr 29
First Quarter

Hourly Weather History & Observations

Time (CDT) Temp. Windchill Dew Point Humidity Pressure Visibility Wind Dir Wind Speed Gust Speed Precip Events Conditions
12:35 AM 46.4 °F 40.7 °F 42.8 °F 87% 29.73 in 7.0 mi SE 12.7 mph - N/A   Clear
12:55 AM 46.4 °F 40.4 °F 42.8 °F 87% 29.73 in 7.0 mi SE 13.8 mph - N/A   Clear
1:15 AM 46.4 °F 40.4 °F 42.8 °F 87% 29.72 in 5.0 mi SE 13.8 mph 19.6 mph N/A   Clear
1:35 AM 46.4 °F 40.4 °F 42.8 °F 87% 29.73 in 5.0 mi SE 13.8 mph - N/A   Clear
1:55 AM 46.4 °F 40.4 °F 42.8 °F 87% 29.72 in 5.0 mi SE 13.8 mph - N/A   Clear
2:15 AM 46.4 °F 40.4 °F 42.8 °F 87% 29.72 in 5.0 mi SE 13.8 mph - N/A   Clear
2:35 AM 46.4 °F 39.8 °F 42.8 °F 87% 29.71 in 5.0 mi SE 16.1 mph - N/A   Clear
2:55 AM 46.4 °F 39.8 °F 42.8 °F 87% 29.70 in 7.0 mi SE 16.1 mph - N/A   Clear
3:15 AM 46.4 °F 40.1 °F 42.8 °F 87% 29.69 in 7.0 mi SE 15.0 mph 20.7 mph N/A   Clear
3:35 AM 46.4 °F 39.8 °F 42.8 °F 87% 29.68 in 7.0 mi SSE 16.1 mph 23.0 mph N/A   Clear
3:55 AM 46.4 °F 39.8 °F 42.8 °F 87% 29.68 in 7.0 mi SSE 16.1 mph - N/A   Scattered Clouds
4:15 AM 46.4 °F 39.8 °F 42.8 °F 87% 29.68 in 7.0 mi SSE 16.1 mph - N/A   Mostly Cloudy
4:35 AM 46.4 °F 39.8 °F 42.8 °F 87% 29.67 in 7.0 mi SSE 16.1 mph - N/A   Overcast
4:55 AM 46.4 °F 40.1 °F 42.8 °F 87% 29.67 in 7.0 mi SSE 15.0 mph 23.0 mph N/A   Overcast
5:15 AM 46.4 °F 39.8 °F 42.8 °F 87% 29.68 in 7.0 mi SSE 16.1 mph 20.7 mph N/A   Overcast
5:35 AM 46.4 °F 39.8 °F 42.8 °F 87% 29.67 in 7.0 mi SSE 16.1 mph 23.0 mph N/A   Overcast
5:55 AM 46.4 °F 39.5 °F 42.8 °F 87% 29.67 in 7.0 mi SSE 17.3 mph - N/A   Overcast
6:15 AM 46.4 °F 39.5 °F 42.8 °F 87% 29.66 in 5.0 mi SSE 17.3 mph 24.2 mph N/A   Overcast
6:35 AM 44.6 °F 37.4 °F 42.8 °F 93% 29.66 in 5.0 mi SSE 16.1 mph 23.0 mph N/A   Overcast
6:55 AM 46.4 °F 40.1 °F 42.8 °F 87% 29.67 in 5.0 mi SSE 15.0 mph - N/A   Overcast
7:15 AM 46.4 °F 40.1 °F 42.8 °F 87% 29.67 in 3.0 mi SSE 15.0 mph 19.6 mph N/A   Overcast
7:35 AM 46.4 °F 40.7 °F 44.6 °F 93% 29.68 in 2.5 mi SSE 12.7 mph 17.3 mph N/A   Overcast
7:55 AM 46.4 °F 40.7 °F 44.6 °F 93% 29.69 in 2.5 mi SSE 12.7 mph - N/A   Overcast
8:15 AM 46.4 °F 40.4 °F 44.6 °F 93% 29.69 in 2.0 mi SSE 13.8 mph - N/A   Overcast
8:35 AM 46.4 °F 40.4 °F 44.6 °F 93% 29.68 in 2.0 mi SE 13.8 mph - N/A   Overcast
8:55 AM 46.4 °F 39.8 °F 44.6 °F 93% 29.68 in 1.8 mi SE 16.1 mph - N/A   Overcast
9:15 AM 46.4 °F 40.1 °F 44.6 °F 93% 29.68 in 2.0 mi SSE 15.0 mph - N/A   Overcast
9:55 AM 50.0 °F - 46.4 °F 87% 29.71 in 2.5 mi SE 11.5 mph - N/A   Overcast
10:15 AM 50.0 °F - 46.4 °F 87% 29.69 in 2.5 mi SSE 16.1 mph - N/A   Overcast
10:35 AM 50.0 °F - 46.4 °F 87% 29.68 in 3.0 mi SSE 15.0 mph 21.9 mph N/A   Overcast
10:55 AM 51.8 °F - 46.4 °F 82% 29.69 in 4.0 mi SSE 15.0 mph - N/A   Overcast
11:15 AM 51.8 °F - 48.2 °F 88% 29.68 in 4.0 mi SSE 17.3 mph 21.9 mph N/A   Overcast
11:35 AM 51.8 °F - 48.2 °F 88% 29.69 in 4.0 mi SSE 11.5 mph - N/A   Overcast
11:55 AM 51.8 °F - 48.2 °F 88% 29.69 in 4.0 mi SSE 12.7 mph - N/A   Overcast
12:15 PM 53.6 °F - 50.0 °F 88% 29.70 in 5.0 mi SSE 12.7 mph - N/A   Overcast
12:35 PM 55.4 °F - 50.0 °F 82% 29.70 in 5.0 mi SSE 12.7 mph - N/A   Overcast
12:55 PM 55.4 °F - 50.0 °F 82% 29.70 in 5.0 mi SSE 10.4 mph - N/A   Overcast
1:15 PM 57.2 °F - 50.0 °F 77% 29.69 in 5.0 mi SSE 11.5 mph - N/A   Mostly Cloudy
1:35 PM 59.0 °F - 50.0 °F 72% 29.69 in 7.0 mi SE 6.9 mph - N/A   Scattered Clouds
1:55 PM 59.0 °F - 51.8 °F 77% 29.69 in 7.0 mi SE 8.1 mph - N/A   Scattered Clouds
2:15 PM 60.8 °F - 51.8 °F 72% 29.69 in 7.0 mi SSE 8.1 mph - N/A   Scattered Clouds
2:35 PM 60.8 °F - 51.8 °F 72% 29.68 in 7.0 mi SE 9.2 mph - N/A   Scattered Clouds
2:55 PM 60.8 °F - 51.8 °F 72% 29.67 in 7.0 mi SSE 9.2 mph - N/A   Clear
3:35 PM 62.6 °F - 48.2 °F 59% 29.67 in 10.0 mi ESE 4.6 mph - N/A   Clear
3:55 PM 62.6 °F - 48.2 °F 59% 29.66 in 10.0 mi SE 4.6 mph - N/A   Clear
4:15 PM 64.4 °F - 46.4 °F 52% 29.66 in 10.0 mi SE 4.6 mph - N/A   Clear
4:35 PM 64.4 °F - 44.6 °F 49% 29.66 in 10.0 mi Calm Calm - N/A   Clear
4:55 PM 64.4 °F - 46.4 °F 52% 29.66 in 10.0 mi Calm Calm - N/A   Clear
5:15 PM 64.4 °F - 44.6 °F 49% 29.65 in 10.0 mi South 3.5 mph - N/A   Clear
5:55 PM 66.2 °F - 46.4 °F 49% 29.65 in 10.0 mi Calm Calm - N/A   Clear
6:15 PM 64.4 °F - 46.4 °F 52% 29.65 in 10.0 mi SSE 4.6 mph - N/A   Clear
6:35 PM 64.4 °F - 46.4 °F 52% 29.66 in 10.0 mi Calm Calm - N/A   Clear
6:55 PM 64.4 °F - 46.4 °F 52% 29.66 in 10.0 mi SE 4.6 mph - N/A   Clear
7:15 PM 64.4 °F - 48.2 °F 56% 29.66 in 10.0 mi SE 5.8 mph - N/A   Clear
7:35 PM 62.6 °F - 48.2 °F 59% 29.66 in 10.0 mi SE 4.6 mph - N/A   Clear
7:55 PM 60.8 °F - 46.4 °F 59% 29.66 in 10.0 mi SE 4.6 mph - N/A   Clear
8:15 PM 60.8 °F - 46.4 °F 59% 29.66 in 10.0 mi SE 4.6 mph - N/A   Clear
8:35 PM 59.0 °F - 46.4 °F 63% 29.67 in 10.0 mi SE 5.8 mph - N/A   Clear
9:15 PM 55.4 °F - 44.6 °F 67% 29.67 in 10.0 mi SE 4.6 mph - N/A   Clear
9:35 PM 55.4 °F - 44.6 °F 67% 29.67 in 10.0 mi SE 6.9 mph - N/A   Clear
9:55 PM 53.6 °F - 48.2 °F 82% 29.67 in 10.0 mi SE 8.1 mph - N/A   Clear
10:15 PM 53.6 °F - 48.2 °F 82% 29.67 in 7.0 mi SE 8.1 mph - N/A   Clear
10:35 PM 51.8 °F - 48.2 °F 88% 29.67 in 5.0 mi SE 10.4 mph - N/A   Clear
10:55 PM 51.8 °F - 46.4 °F 82% 29.67 in 5.0 mi SE 10.4 mph - N/A   Clear
11:15 PM 51.8 °F - 46.4 °F 82% 29.67 in 4.0 mi SSE 8.1 mph - N/A   Clear
11:35 PM 50.0 °F - 46.4 °F 87% 29.68 in 4.0 mi SSE 8.1 mph - N/A   Clear
11:55 PM 50.0 °F - 46.4 °F 87% 29.67 in 4.0 mi SSE 8.1 mph - N/A   Clear